Location: Carnetin
(48.9010°N, 2.7059°E)
Time: 09:41:22
(UTC+00:00)

Cosmos 2322 Rocket - Pass Details

Date: 24 October 2021
Orbit: 832 x 851 km, 71.0° (Epoch: 30 November)

Event Time Altitude Azimuth Distance (km) Brightness Sun altitude
Rises 18:03:22 0° 195° (SSW) 3,363 5.6 -13.9°
Reaches altitude 10° 18:05:49 10° 192° (SSW) 2,434 4.8 -14.3°
Maximum altitude 18:11:18 62° 113° (ESE) 937 2.2 -15.2°
Drops below altitude 10° 18:16:51 10° 34° (NNE) 2,456 4.3 -16.2°
Enters shadow 18:18:20 - 32° (NNE) 3,023 4.8 -16.4°
